{"data":{"norad_id":64167,"intl_designator":"2025-112X","name":"STARLINK-34309","alt_names":[],"object_type":"PAYLOAD","status":"ACTIVE","operator":null,"country":"US","launch_date":"2025-05-27","launch_site_code":"AFWTR","launch_vehicle":null,"mission":null,"orbit_class":"UNKNOWN","rcs_meters":null,"size_class":null,"mass_kg":null,"dimensions":null,"purposes":["comms"],"wikipedia_slug":null,"has_3d_model":false,"image_url":null,"decayed_at":null,"tle_current":{"epoch":"2026-05-25T03:14:04.254144Z","epoch_age_seconds":59443,"freshness":"FRESH","line1":"1 64167U 25112X   26145.13477146 -.00014179  00000+0 -98141-3 0  9995","line2":"2 64167  97.4512 196.5484 0001817 162.3477 197.7814 15.05617349 54814","mean_motion":15.05617349,"eccentricity":0.0001817,"inclination_deg":97.4512,"raan_deg":196.5484,"arg_perigee_deg":162.3477,"mean_anomaly_deg":197.7814,"bstar":-0.00098141,"rev_number":5481,"period_min":95.641830970958,"perigee_km":548.35253768665,"apogee_km":550.87008142234,"semimajor_km":6927.7483095545,"source":"CELESTRAK","updated_at":"2026-05-25T13:38:20.307633Z"}}}